This is the latest recevied weather packets stored in our database for station/object DW9280. If no packets are shown the sender has not sent any weather packets the latest 10 day(s).
| Time | Temp. | Humidity | Pressure | Rain* | Wind** | Luminosity | Snow |
|---|---|---|---|---|---|---|---|
| 1777718823 | 21.67° C | 66% | 1017.7 hPa | 0 mm | - | 816 W/m² | - |
| 1777718523 | 21.67° C | 65% | 1017.6 hPa | 0 mm | - | 563 W/m² | - |
| 1777718223 | 21.67° C | 65% | 1017.7 hPa | 0 mm | - | 846 W/m² | - |
| 1777717965 | 21.67° C | 65% | 1017.8 hPa | 0 mm | - | 749 W/m² | - |
| 1777717623 | 21.11° C | 65% | 1017.7 hPa | 0 mm | - | 729 W/m² | - |
| 1777717324 | 21.11° C | 66% | 1017.8 hPa | 0 mm | - | 729 W/m² | - |
| 1777717023 | 20.56° C | 66% | 1017.9 hPa | 0 mm | - | 740 W/m² | - |
| 1777716723 | 21.11° C | 66% | 1017.8 hPa | 0 mm | - | 722 W/m² | - |
| 1777716461 | 21.11° C | 66% | 1017.9 hPa | 0 mm | - | 657 W/m² | - |
| 1777716125 | 20.56° C | 65% | 1017.8 hPa | 0 mm | - | 738 W/m² | - |
| 1777715822 | 20.56° C | 65% | 1017.9 hPa | 0 mm | - | 728 W/m² | - |
| 1777715522 | 20.56° C | 65% | 1017.9 hPa | 0 mm | - | 721 W/m² | - |
| 1777715224 | 20.56° C | 66% | 1018 hPa | 0 mm | - | 719 W/m² | - |
| 1777714923 | 20.56° C | 65% | 1018.1 hPa | 0 mm | - | 617 W/m² | - |
| 1777714623 | 20.56° C | 65% | 1018.1 hPa | 0 mm | - | 756 W/m² | - |
| 1777714323 | 20° C | 65% | 1018.1 hPa | 0 mm | - | 696 W/m² | - |
| 1777714061 | 19.44° C | 64% | 1018 hPa | 0 mm | - | 735 W/m² | - |
| 1777713761 | 18.89° C | 64% | 1018.1 hPa | 0 mm | - | 759 W/m² | - |
| 1777713424 | 18.89° C | 66% | 1018 hPa | 0 mm | - | 626 W/m² | - |
| 1777713122 | 18.33° C | 67% | 1017.9 hPa | 0 mm | - | 784 W/m² | - |
| 1777712822 | 17.78° C | 67% | 1017.8 hPa | 0 mm | - | 413 W/m² | - |
| 1777712522 | 17.22° C | 67% | 1017.8 hPa | 0 mm | - | 334 W/m² | - |
| 1777712258 | 17.22° C | 68% | 1017.7 hPa | 0 mm | - | 436 W/m² | - |
| 1777711922 | 17.22° C | 69% | 1017.7 hPa | 0 mm | - | 334 W/m² | - |
| 1777711621 | 16.67° C | 69% | 1017.7 hPa | 0 mm | - | 211 W/m² | - |
* Rain latest hour (hover to see other rain measurements)
** Current wind speed in m/s (hover to see current wind gust speed)